KOMPSAT 3

导读 | 星芒AI

KOMPSAT 3 是韩国开发的高分辨率对地观测卫星,于2009年发射。它搭载全色和多光谱传感器,具备1米和4米分辨率,用于地形测绘、环境监测和灾害评估。该卫星运行在太阳同步轨道,为韩国及国际用户提供高质量遥感数据,广泛应用于农业、城市规划和国防等领域。

基本信息
目录编号:
38338
目录名称:
KOMPSAT 3
国际标识:
2012-025B
轨道中心:
EARTH
卫星名称:
KOMPSAT 3
卫星全名:
--
卫星状态:
在轨 (已飞行4902 天)
发射日期:
2012-05-17 UTC
国别 :
韩国 (KR)
星等 :
--
轨道信息
数据来源 国际轨道数据
星历时间: 2025-10-18T06:50:03+0800
8小时前
查看轨道信息
半长轴: 7066.15km
偏心率: 0.0006725
轨道倾角: 98.322°
近地点辐角 131.088°
升交点赤经 245.153°
平近点角 229.090°
近地点: 683.263km
远地点: 692.767km
周期: 98.522分钟
每日圈数: 14.616001
详细信息
使用方式:
暂无
2D轨道图
3D轨道图
轨道高度分析图
轨道倾角分析图
轨道综合分析图
查看轨道综合分析图